Hourly Weather Sencovo

Today, 25 November, Wednesday

Time Temperature Precipitation Wind Pressure Humidity
00:00 -2°C° 0 mm 2 mps 740 mmHg 91%
01:00 -3°C° 0 mm 2 mps 740 mmHg 94%
02:00 -3°C° 0 mm 2 mps 741 mmHg 95%
03:00 -3°C° 0 mm 2 mps 741 mmHg 94%
04:00 -3°C° 0 mm 2 mps 741 mmHg 94%
05:00 -3°C° 0 mm 2 mps 741 mmHg 93%
06:00 -3°C° 0 mm 2 mps 741 mmHg 91%
07:00 0°C° 0 mm 1 mps 742 mmHg 89%
08:00 0°C° 0 mm 1 mps 742 mmHg 88%
09:00 -2°C° 0 mm 2 mps 743 mmHg 88%
10:00 -2°C° 0 mm 2 mps 743 mmHg 88%
11:00 -1°C° 0 mm 2 mps 743 mmHg 89%
12:00 -1°C° 0 mm 2 mps 744 mmHg 89%
13:00 -1°C° 0 mm 2 mps 744 mmHg 90%
14:00 -1°C° 0 mm 2 mps 744 mmHg 92%
15:00 -2°C° 0.1 mm 2 mps 745 mmHg 93%
16:00 -2°C° 0.1 mm 2 mps 745 mmHg 94%
17:00 0°C° 0.1 mm 1 mps 745 mmHg 94%
18:00 0°C° 0 mm 1 mps 745 mmHg 95%
19:00 0°C° 0 mm 1 mps 746 mmHg 95%
20:00 -1°C° 0 mm 1 mps 746 mmHg 95%
21:00 -1°C° 0 mm 1 mps 746 mmHg 95%
22:00 -1°C° 0 mm 1 mps 746 mmHg 94%
23:00 -1°C° 0 mm 1 mps 746 mmHg 94%

Tomorrow, 26 November, Thursday

Time Temperature Precipitation Wind Pressure Humidity
00:00 -2°C° 0 mm 1 mps 747 mmHg 94%
01:00 -2°C° 0 mm 1 mps 747 mmHg 93%
02:00 -2°C° 0 mm 1 mps 747 mmHg 93%
03:00 -2°C° 0 mm 1 mps 747 mmHg 92%
04:00 -2°C° 0 mm 1 mps 746 mmHg 92%
05:00 -4°C° 0 mm 2 mps 746 mmHg 92%
06:00 -3°C° 0 mm 2 mps 746 mmHg 89%
07:00 -4°C° 0 mm 3 mps 746 mmHg 86%
08:00 -2°C° 0 mm 3 mps 746 mmHg 83%
09:00 -3°C° 0.1 mm 4 mps 745 mmHg 83%
10:00 -3°C° 0.1 mm 4 mps 744 mmHg 82%
11:00 -4°C° 0.1 mm 5 mps 743 mmHg 81%
12:00 -4°C° 0.6 mm 5 mps 743 mmHg 85%
13:00 -4°C° 0.6 mm 5 mps 742 mmHg 89%
14:00 -4°C° 0.6 mm 5 mps 742 mmHg 93%
15:00 -2°C° 0.8 mm 5 mps 741 mmHg 94%
16:00 -2°C° 0.8 mm 4 mps 741 mmHg 95%
17:00 -1°C° 0.8 mm 4 mps 740 mmHg 96%
18:00 -1°C° 0.7 mm 4 mps 740 mmHg 96%
19:00 +1°C° 0.7 mm 3 mps 739 mmHg 96%
20:00 +1°C° 0.7 mm 3 mps 739 mmHg 97%
21:00 +1°C° 0.3 mm 3 mps 739 mmHg 97%
22:00 +1°C° 0.3 mm 3 mps 738 mmHg 97%
23:00 +2°C° 0.3 mm 3 mps 738 mmHg 96%

Day after tomorrow, 27 November, Friday

Time Temperature Precipitation Wind Pressure Humidity
00:00 +1°C° 0.7 mm 3 mps 738 mmHg 97%
01:00 +1°C° 0.7 mm 3 mps 738 mmHg 97%
02:00 +1°C° 0.7 mm 3 mps 738 mmHg 97%
03:00 +1°C° 0.7 mm 3 mps 737 mmHg 97%
04:00 +1°C° 0.7 mm 3 mps 737 mmHg 97%
05:00 0°C° 0.7 mm 3 mps 736 mmHg 97%
06:00 0°C° 0.5 mm 3 mps 736 mmHg 97%
07:00 0°C° 0.5 mm 3 mps 737 mmHg 97%
08:00 0°C° 0.5 mm 3 mps 737 mmHg 97%
09:00 0°C° 0.2 mm 3 mps 737 mmHg 97%
10:00 +1°C° 0.2 mm 2 mps 737 mmHg 97%
11:00 +1°C° 0.2 mm 2 mps 737 mmHg 97%
12:00 +1°C° 0.1 mm 2 mps 738 mmHg 98%
13:00 +1°C° 0.1 mm 2 mps 738 mmHg 98%
14:00 +1°C° 0.1 mm 2 mps 738 mmHg 98%
15:00 +1°C° 0.4 mm 2 mps 739 mmHg 98%
16:00 +1°C° 0.4 mm 2 mps 739 mmHg 98%
17:00 +1°C° 0.4 mm 2 mps 739 mmHg 98%
18:00 +1°C° 0.2 mm 2 mps 740 mmHg 98%
19:00 -1°C° 0.2 mm 3 mps 740 mmHg 98%
20:00 -1°C° 0.2 mm 3 mps 741 mmHg 97%
21:00 -1°C° 0.4 mm 3 mps 741 mmHg 97%
22:00 -1°C° 0.4 mm 3 mps 742 mmHg 97%
23:00 -1°C° 0.4 mm 3 mps 743 mmHg 97%

28 November, Saturday

Time Temperature Precipitation Wind Pressure Humidity
00:00 -1°C° 0.6 mm 3 mps 743 mmHg 97%
01:00 -1°C° 0.6 mm 3 mps 744 mmHg 97%
02:00 -1°C° 0.6 mm 3 mps 744 mmHg 97%
03:00 -1°C° 0.2 mm 3 mps 745 mmHg 97%
04:00 -1°C° 0.2 mm 3 mps 745 mmHg 97%
05:00 -1°C° 0.2 mm 3 mps 746 mmHg 96%
06:00 -2°C° 0.3 mm 3 mps 746 mmHg 96%
07:00 -2°C° 0.3 mm 3 mps 747 mmHg 96%
08:00 -2°C° 0.3 mm 3 mps 747 mmHg 96%
09:00 -2°C° 0.1 mm 3 mps 748 mmHg 95%
10:00 -2°C° 0.1 mm 3 mps 748 mmHg 94%
11:00 -2°C° 0.1 mm 3 mps 749 mmHg 94%
12:00 -2°C° 0.1 mm 3 mps 749 mmHg 94%
13:00 -4°C° 0.1 mm 3 mps 750 mmHg 94%
14:00 -4°C° 0.1 mm 3 mps 750 mmHg 94%
15:00 -4°C° 0.1 mm 3 mps 751 mmHg 94%
16:00 -4°C° 0.1 mm 3 mps 751 mmHg 94%
17:00 -5°C° 0.1 mm 3 mps 751 mmHg 95%
18:00 -5°C° 0.1 mm 3 mps 752 mmHg 95%
19:00 -5°C° 0.1 mm 3 mps 752 mmHg 95%
20:00 -5°C° 0.1 mm 3 mps 753 mmHg 95%
21:00 -5°C° 0 mm 3 mps 753 mmHg 95%
22:00 -5°C° 0 mm 3 mps 753 mmHg 95%
23:00 -4°C° 0 mm 2 mps 754 mmHg 95%

29 November, Sunday

Time Temperature Precipitation Wind Pressure Humidity
00:00 -4°C° 0 mm 2 mps 754 mmHg 95%
01:00 -4°C° 0 mm 2 mps 754 mmHg 95%
02:00 -4°C° 0 mm 2 mps 755 mmHg 95%
03:00 -4°C° 0 mm 2 mps 755 mmHg 95%
04:00 -4°C° 0 mm 2 mps 755 mmHg 95%
05:00 -4°C° 0 mm 2 mps 755 mmHg 95%
06:00 -4°C° 0 mm 2 mps 756 mmHg 95%
07:00 -4°C° 0 mm 2 mps 756 mmHg 95%
08:00 -3°C° 0 mm 2 mps 756 mmHg 95%
09:00 -3°C° 0 mm 2 mps 757 mmHg 94%
10:00 -3°C° 0 mm 2 mps 757 mmHg 93%
11:00 -3°C° 0 mm 2 mps 757 mmHg 92%
12:00 -3°C° 0 mm 2 mps 757 mmHg 93%
13:00 -3°C° 0 mm 2 mps 757 mmHg 93%
14:00 -2°C° 0 mm 2 mps 757 mmHg 94%
15:00 -2°C° 0 mm 2 mps 757 mmHg 94%
16:00 -2°C° 0 mm 2 mps 757 mmHg 94%
17:00 -2°C° 0 mm 2 mps 757 mmHg 94%
18:00 -2°C° 0 mm 3 mps 757 mmHg 94%
19:00 -2°C° 0 mm 3 mps 756 mmHg 95%
20:00 -2°C° 0 mm 3 mps 756 mmHg 95%
21:00 -2°C° 0.1 mm 3 mps 756 mmHg 95%
22:00 -2°C° 0.1 mm 3 mps 756 mmHg 95%
23:00 -2°C° 0.1 mm 3 mps 756 mmHg 96%

30 November, Monday

Time Temperature Precipitation Wind Pressure Humidity
00:00 -2°C° 0.1 mm 3 mps 755 mmHg 96%
01:00 -1°C° 0.1 mm 3 mps 755 mmHg 96%
02:00 -1°C° 0.1 mm 3 mps 755 mmHg 96%
03:00 -1°C° 0 mm 3 mps 754 mmHg 96%
04:00 -1°C° 0 mm 3 mps 754 mmHg 97%
05:00 0°C° 0 mm 3 mps 754 mmHg 97%
06:00 0°C° 0 mm 3 mps 753 mmHg 97%
07:00 0°C° 0 mm 3 mps 753 mmHg 98%
08:00 0°C° 0 mm 3 mps 753 mmHg 98%
09:00 0°C° 0 mm 3 mps 753 mmHg 98%
10:00 0°C° 0 mm 3 mps 752 mmHg 98%
11:00 0°C° 0 mm 3 mps 752 mmHg 98%
12:00 0°C° 0.1 mm 3 mps 752 mmHg 98%
13:00 -1°C° 0.1 mm 4 mps 751 mmHg 98%
14:00 -1°C° 0.1 mm 4 mps 751 mmHg 98%
15:00 0°C° 0.4 mm 4 mps 750 mmHg 98%
16:00 0°C° 0.4 mm 4 mps 750 mmHg 98%
17:00 0°C° 0.4 mm 4 mps 749 mmHg 98%
18:00 0°C° 0.4 mm 4 mps 749 mmHg 98%
19:00 +1°C° 0.4 mm 3 mps 749 mmHg 98%
20:00 +1°C° 0.4 mm 3 mps 748 mmHg 98%
21:00 +1°C° 0.1 mm 3 mps 748 mmHg 95%
22:00 0°C° 0.1 mm 3 mps 748 mmHg 93%
23:00 0°C° 0.1 mm 3 mps 748 mmHg 91%
Show more